Location: Iwkowa
(49.8210°N, 20.5761°E)
Time: 14:55:20
(UTC+01:00)

ISS - Pass Details

Date: 30 January 2019
Orbit: 403 x 411 km, 51.6° (Epoch: 18 February)

Event Time Altitude Azimuth Distance (km) Brightness Sun altitude
Rises 19:02:30 0° 280° (W) 2,338 1.4 -24.8°
Reaches altitude 10° 19:04:36 10° 283° (WNW) 1,478 0.0 -25.2°
Enters shadow 19:06:22 28° 293° (WNW) 798 -1.8 -25.4°
